Wetbulb
48.16 48.10 48.49 48.38 48.93 51.19 51.98 50.69 49.62 49.08 49.20 49.89 52.05 52.20 51.94 51.80 51.47 51.41 50.82 48.43 49.52 47.66 47.26 47.24 48.79 50.06 49.88 50.52 51.20 52.13 53.11 54.25 50.57 49.02 50.73 51.62 51.04 51.88 52.57 52.91 54.93 52.59 51.28
47.85 48.31 48.03 47.53 47.82 48.36 50.37 48.68 48.36 47.51 49.10 48.76 50.60 50.66 50.32 50.54 49.88 49.54 48.68 48.68 46.96 45.37 45.58 45.48 45.55 48.25 48.92 49.21 49.18 48.04 49.99 51.41 49.59 46.92 49.07 49.69 49.97 49.98 49.65 50.78 53.88 52.32 50.87
48.23 47.75 47.59 46.91 46.46 47.49 50.89 49.25 49.69 48.57 48.67 48.42 49.37 49.27 49.21 49.44 49.05 49.02 48.45 47.60 46.67 46.11 44.72 44.23 44.65 47.66 46.83 47.35 48.87 47.75 47.84 49.22 49.29 48.05 47.31 49.56 49.89 49.68 49.36 50.52 51.56 50.02 51.25
47.24 47.39 47.11 47.88 47.53 51.68 50.10 48.47 48.02 47.92 47.77 47.87 47.52 47.33 47.63 48.00 48.13 48.04 46.38 44.72 45.19 45.93 45.96 47.89 45.67 47.84 48.16 47.91 47.95 47.78 48.72 47.60 47.53 47.49 47.39 47.73 48.60 49.63 50.05 49.41 49.07 49.56 49.00
46.42 47.66 48.77 49.78 51.40 49.57 47.92 46.65 47.05 46.83 46.97 46.33 45.87 45.66 45.60 46.02 47.09 45.83 44.65 42.90 43.82 44.73 46.27 47.12 48.76 49.93 51.12 50.82 48.45 47.78 47.55 47.77 48.04 47.39 46.97 47.46 47.73 47.69 48.11 49.70 47.67 46.81 46.21
46.85 47.69 49.68 51.15 48.81 47.24 46.54 45.85 45.62 45.41 45.29 45.45 44.90 44.88 44.30 44.89 45.48 47.10 45.27 44.86 45.35 44.77 44.92 46.38 47.48 48.76 48.57 50.95 51.28 51.02 49.83 47.31 46.90 47.35 46.32 44.71 44.76 46.99 48.48 46.97 45.93 44.58 42.78
47.20 48.97 48.62 48.13 46.23 45.58 45.41 44.91 44.09 43.96 44.18 43.98 44.22 44.40 44.33 44.58 44.72 45.14 47.10 45.87 45.49 45.27 45.42 45.96 46.95 48.05 47.35 48.10 48.61 48.21 47.79 47.45 46.78 44.64 42.45 42.25 43.12 44.20 47.31 46.63 46.10 45.31 43.90
47.57 48.69 47.46 46.02 44.70 44.53 44.11 43.50 43.49 43.68 43.50 43.46 43.83 44.08 43.57 43.46 43.90 43.41 45.57 46.33 45.34 45.39 45.49 45.58 45.83 46.12 46.11 47.03 46.08 45.38 44.75 44.71 44.46 44.63 43.07 42.90 43.23 44.01 45.47 47.02 45.30 43.49 43.60
48.19 46.40 45.59 44.55 43.57 43.30 42.79 42.87 43.54 43.62 43.35 41.19 42.07 40.25 40.27 40.07 42.80 43.14 44.54 43.32 45.54 45.40 45.75 44.77 44.93 45.28 44.82 44.68 45.40 44.60 43.84 43.34 45.14 44.46 43.90 43.02 42.47 43.27 44.80 46.32 44.22 43.05 39.73
45.48 44.47 44.07 43.89 43.09 42.49 42.76 42.61 42.67 42.68 43.25 42.51 41.98 43.03 44.16 40.58 42.11 42.73 45.53 45.58 42.31 43.95 45.02 44.52 44.36 45.75 44.06 44.36 45.10 44.13 44.65 44.49 42.32 41.33 41.09 42.22 42.65 43.10 44.06 41.99 43.21 41.58 40.15
44.64 43.97 43.74 43.74 43.15 43.17 42.72 42.69 42.52 44.00 44.08 43.86 44.10 44.32 43.51 42.00 42.09 42.38 43.51 45.22 43.99 44.07 43.94 44.11 44.17 42.24 42.17 41.80 44.29 46.78 44.83 45.58 43.46 41.41 40.39 40.92 41.60 41.67 42.11 42.68 42.86 41.62 38.68
43.98 43.44 43.43 43.51 44.15 44.31 43.42 43.80 44.84 44.81 44.27 43.89 43.79 44.36 45.11 45.29 44.55 42.82 41.89 42.72 44.67 43.75 45.10 45.75 44.11 41.25 41.10 41.75 43.03 41.17 42.14 43.68 41.95 40.81 40.64 39.71 39.92 40.33 41.01 41.89 42.68 42.97 43.19
43.15 42.76 43.13 43.71 43.95 44.67 43.47 44.54 45.05 44.75 42.89 42.18 42.68 41.76 41.85 42.78 43.86 43.80 43.14 43.99 45.33 47.17 47.61 45.08 42.68 42.05 42.40 43.04 41.67 41.74 42.60 42.83 42.45 41.43 40.65 40.73 41.38 41.31 41.70 41.56 42.49 42.68 42.47
42.72 42.66 42.51 41.19 40.80 40.94 41.77 40.85 40.86 39.17 38.99 38.87 37.80 36.64 39.41 40.48 40.72 41.16 43.96 46.96 46.53 47.61 47.94 47.40 45.14 44.21 43.21 43.47 43.26 42.60 42.68 42.08 41.96 41.01 40.62 41.15 41.92 41.76 41.19 41.45 40.27 40.48 39.63
42.55 42.66 42.49 41.21 40.15 39.45 38.85 38.91 38.81 38.00 38.77 37.31 38.42 37.00 37.11 39.19 39.71 39.17 41.15 44.77 46.10 44.25 46.38 46.01 44.58 43.43 42.38 40.77 41.69 42.71 42.38 42.27 41.24 41.19 40.74 40.42 40.56 40.68 40.30 41.56 40.63 39.99 38.27
40.92 40.20 38.90 37.27 36.95 36.79 36.15 37.05 39.10 38.16 38.07 37.62 37.36 38.24 39.79 39.21 39.44 40.08 40.24 39.84 40.06 41.43 44.88 43.69 42.35 41.33 40.64 41.17 41.19 41.16 41.54 41.54 41.04 40.50 40.59 40.66 40.22 39.91 39.55 40.22 40.45 39.76 38.51
38.07 38.85 38.28 38.04 37.35 36.81 36.72 36.05 34.57 37.80 39.48 38.84 38.16 37.77 38.82 39.20 39.86 39.90 40.18 40.70 40.00 43.33 44.35 43.05 42.19 42.17 42.38 41.71 41.13 40.68 40.22 40.92 41.22 40.61 40.61 40.71 40.45 40.05 39.61 39.12 39.11 38.83 38.17
39.44 41.51 39.14 40.45 40.51 38.23 37.06 36.26 36.22 35.47 35.10 37.49 40.13 39.89 38.57 39.07 39.54 40.06 40.56 42.84 44.44 44.46 43.94 42.88 42.25 42.37 42.25 41.45 40.98 40.61 40.74 40.48 40.46 40.97 40.92 40.94 40.35 39.56 38.88 38.60 38.90 38.49 38.25
41.34 43.08 44.12 42.73 42.45 39.21 37.51 37.36 36.56 36.59 37.33 38.20 41.35 42.33 42.41 40.19 40.13 40.26 41.02 44.53 43.96 43.98 44.61 44.47 44.66 44.45 43.33 42.32 42.36 42.56 42.52 41.29 41.43 41.40 40.71 40.32 40.10 39.47 38.57 38.39 37.81 36.62 37.07
43.74 42.15 41.99 43.39 38.69 36.56 36.25 35.86 35.76 37.05 38.63 39.51 39.25 39.11 43.14 43.14 42.11 42.60 43.49 44.29 43.94 44.08 44.73 44.98 45.15 44.94 43.20 43.04 43.01 43.19 43.68 43.54 43.68 43.57 41.67 41.31 41.06 40.54 39.24 38.99 38.89 38.48 38.09
44.02 40.50 38.24 38.46 36.63 36.09 35.62 35.67 36.34 37.48 38.04 37.77 38.41 37.88 34.90 42.12 41.22 41.52 42.20 42.84 43.42 44.63 45.12 45.24 45.41 45.72 45.96 45.89 45.74 45.33 45.13 44.98 44.94 43.01 41.70 41.38 41.19 40.05 40.43 40.25 39.93 39.73 39.54
41.14 38.19 37.07 35.91 36.32 36.53 36.15 36.56 37.25 37.55 38.73 39.13 40.01 39.75 36.11 41.90 41.44 41.51 41.59 41.85 42.49 42.90 43.82 44.34 44.09 44.33 44.92 45.34 45.91 45.77 45.53 45.23 45.15 43.50 42.22 41.48 41.17 40.83 40.49 40.19 40.11 40.23 40.06
39.24 38.42 37.44 36.87 37.39 37.28 37.32 36.84 37.12 37.42 37.31 37.18 39.01 39.83 40.55 40.77 40.83 41.07 41.78 41.99 41.90 40.93 40.72 41.25 40.58 41.02 42.43 43.00 42.63 42.36 43.34 44.14 44.90 44.48 42.10 41.69 41.69 41.20 40.85 40.18 40.10 39.84 39.94
39.93 38.39 37.62 37.03 38.62 37.69 36.33 36.24 36.74 36.05 37.78 37.17 37.19 36.83 36.39 37.42 37.93 38.25 38.35 39.20 39.56 39.48 39.50 38.82 38.69 38.75 39.67 40.35 41.56 41.05 41.37 45.61 46.25 45.63 45.17 43.73 43.28 42.59 42.83 42.53 42.09 42.01 41.35
38.17 38.11 37.60 37.32 37.75 36.49 36.75 36.56 36.71 36.30 36.88 36.44 36.01 35.45 34.43 35.48 35.96 36.63 36.30 36.67 36.59 36.74 36.87 38.50 39.06 40.18 39.60 39.99 40.34 39.65 35.77 35.56 41.34 39.52 44.51 43.57 42.32 41.85 41.38 41.10 40.70 40.80 40.19
40.22 39.63 38.14 38.48 37.93 37.41 37.06 36.81 35.86 36.11 35.50 35.64 34.55 33.60 33.76 34.05 34.31 34.51 34.93 35.22 35.26 35.49 35.63 35.75 36.25 37.54 39.79 40.44 38.42 36.13 35.93 36.25 39.85 37.45 44.09 43.30 42.66 42.04 41.79 41.06 40.76 40.71 40.37
MSLP
1014.78 1014.33 1013.96 1013.49 1013.00 1012.63 1012.25 1012.12 1012.00 1011.68 1011.56 1011.11 1010.67 1010.25 1009.60 1009.16 1009.20 1009.03 1009.16 1009.05 1008.75 1008.78 1008.49 1008.05 1007.90 1007.56 1007.31 1006.95 1006.53 1006.40 1005.98 1005.71 1006.06 1006.68 1006.74 1007.15 1007.65 1007.79 1008.01 1008.59 1008.59 1009.40 1010.46
1014.78 1014.35 1013.89 1013.29 1012.74 1012.35 1012.01 1012.17 1012.11 1011.66 1011.45 1011.28 1010.93 1010.47 1010.03 1009.61 1009.35 1009.59 1009.68 1009.29 1009.04 1008.73 1008.43 1008.20 1008.30 1007.80 1007.51 1006.96 1006.77 1006.80 1006.61 1006.16 1005.92 1005.98 1006.47 1007.06 1007.56 1008.12 1008.38 1008.68 1008.96 1009.50 1009.47
1014.50 1014.15 1013.75 1013.20 1012.72 1012.31 1012.14 1012.08 1012.07 1011.71 1011.59 1011.44 1011.13 1010.79 1010.38 1010.29 1010.00 1010.38 1010.32 1009.97 1009.41 1009.33 1008.91 1009.03 1008.36 1007.98 1007.70 1007.45 1007.16 1006.81 1006.62 1006.31 1005.96 1006.01 1006.30 1006.91 1007.42 1008.28 1008.77 1008.92 1009.22 1009.70 1009.93
1014.23 1013.85 1013.44 1012.86 1012.37 1012.04 1012.14 1012.22 1012.29 1011.95 1011.84 1011.71 1011.33 1011.10 1010.74 1010.73 1010.70 1010.51 1010.42 1009.95 1009.49 1009.39 1009.21 1009.05 1008.64 1008.27 1007.94 1007.63 1007.43 1007.09 1006.88 1006.58 1006.37 1006.50 1006.69 1007.20 1007.66 1008.56 1008.79 1008.93 1009.27 1009.90 1010.19
1013.94 1013.55 1012.95 1012.26 1012.02 1012.20 1012.29 1012.35 1012.12 1012.28 1012.13 1012.15 1011.61 1011.34 1011.18 1011.06 1011.15 1010.82 1010.55 1010.33 1010.12 1009.69 1009.71 1009.48 1008.87 1008.33 1008.01 1007.88 1007.84 1007.48 1007.28 1007.25 1007.10 1006.91 1007.16 1007.68 1008.06 1008.70 1008.81 1008.72 1009.41 1010.21 1010.95
1013.80 1013.33 1012.66 1012.02 1012.34 1012.54 1012.54 1012.55 1012.54 1012.63 1012.46 1012.36 1011.35 1011.67 1011.56 1011.61 1011.51 1011.28 1011.04 1010.68 1010.40 1010.29 1010.11 1009.66 1009.19 1008.77 1008.58 1008.34 1008.33 1008.20 1007.94 1007.93 1007.82 1007.76 1007.91 1008.15 1008.90 1009.06 1009.09 1009.23 1009.81 1010.58 1011.50
1013.71 1013.23 1012.97 1012.81 1012.88 1013.05 1012.92 1012.93 1012.97 1013.05 1012.90 1012.56 1012.39 1012.22 1012.16 1012.15 1011.79 1011.38 1010.87 1010.61 1010.46 1010.28 1010.15 1009.87 1009.47 1009.49 1009.35 1008.92 1008.99 1008.81 1008.71 1008.65 1008.79 1008.70 1008.87 1009.15 1009.51 1009.58 1009.48 1009.70 1010.22 1010.71 1011.53
1013.61 1013.28 1013.34 1013.37 1013.46 1013.51 1013.40 1013.63 1013.49 1013.28 1013.11 1013.04 1012.90 1012.71 1012.58 1012.23 1011.82 1011.43 1011.10 1010.72 1010.49 1010.41 1010.29 1010.07 1009.95 1009.99 1009.85 1009.59 1009.53 1009.55 1009.74 1009.87 1009.68 1009.43 1009.44 1009.97 1010.16 1010.03 1009.98 1009.90 1010.54 1011.40 1012.19
1013.73 1013.80 1013.92 1014.00 1014.09 1014.22 1014.26 1014.12 1013.96 1013.72 1013.48 1013.56 1013.32 1013.15 1012.87 1012.49 1012.04 1011.57 1011.41 1011.32 1010.82 1010.66 1010.61 1010.52 1010.36 1010.12 1009.99 1010.10 1010.04 1010.22 1010.61 1010.66 1010.52 1010.32 1010.45 1010.52 1010.54 1010.30 1010.09 1010.20 1011.07 1011.57 1012.75
1014.40 1014.54 1014.65 1014.69 1014.71 1014.72 1014.69 1014.51 1014.27 1014.02 1013.85 1013.72 1013.41 1013.11 1012.79 1012.51 1012.11 1011.91 1011.63 1011.51 1011.21 1010.84 1010.47 1010.62 1010.68 1010.49 1010.45 1010.49 1010.50 1010.74 1010.80 1011.13 1011.26 1011.35 1011.37 1011.09 1010.94 1011.05 1011.01 1011.05 1011.19 1011.68 1012.45
1015.10 1015.19 1015.24 1015.20 1015.25 1015.27 1015.09 1014.80 1014.59 1014.22 1014.00 1013.79 1013.52 1013.16 1013.01 1012.89 1012.64 1012.27 1011.90 1011.63 1011.54 1011.34 1011.15 1011.06 1011.13 1010.98 1010.99 1010.86 1010.83 1010.86 1011.22 1011.54 1011.61 1011.61 1011.79 1011.93 1011.99 1012.06 1011.98 1011.89 1011.78 1012.01 1012.71
1015.81 1015.81 1015.85 1015.81 1015.70 1015.49 1015.22 1014.86 1014.67 1014.48 1014.28 1014.20 1013.94 1013.66 1013.39 1013.17 1012.90 1012.71 1012.36 1012.10 1011.88 1011.86 1011.96 1011.86 1011.84 1011.46 1011.56 1011.59 1011.63 1011.70 1011.79 1012.06 1012.28 1012.49 1012.71 1012.88 1012.96 1012.93 1012.97 1012.86 1012.88 1013.03 1013.11
1016.39 1016.44 1016.37 1016.16 1015.96 1015.68 1015.43 1015.20 1015.10 1014.97 1014.82 1014.73 1014.54 1014.38 1014.06 1013.79 1013.50 1013.23 1013.02 1012.79 1012.58 1012.51 1012.49 1012.45 1012.24 1012.21 1012.20 1012.36 1012.40 1012.40 1012.57 1012.76 1012.92 1013.07 1013.22 1013.35 1013.51 1013.60 1013.61 1013.68 1013.66 1013.66 1013.73
1017.04 1017.04 1016.92 1016.73 1016.57 1016.25 1015.94 1015.76 1015.59 1015.54 1015.43 1015.30 1015.19 1015.08 1014.59 1014.48 1014.20 1013.73 1013.45 1013.25 1013.04 1012.92 1012.93 1012.95 1012.96 1012.97 1013.02 1013.18 1013.30 1013.43 1013.48 1013.47 1013.48 1013.68 1013.80 1013.97 1014.09 1014.11 1014.11 1014.22 1014.15 1014.35 1014.49
1017.67 1017.62 1017.44 1017.23 1017.02 1016.86 1016.74 1016.58 1016.23 1016.05 1015.83 1015.52 1015.49 1015.40 1015.25 1014.94 1014.85 1014.67 1014.22 1013.93 1013.78 1013.72 1013.48 1013.52 1013.67 1013.78 1013.97 1014.21 1014.25 1014.16 1014.19 1014.18 1014.20 1014.31 1014.40 1014.59 1014.67 1014.71 1014.85 1014.93 1014.98 1015.17 1015.32
1018.26 1018.09 1017.94 1017.80 1017.74 1017.61 1017.40 1017.10 1016.48 1016.27 1015.87 1015.72 1015.26 1015.01 1015.24 1015.06 1015.04 1014.92 1014.71 1014.50 1014.35 1014.15 1014.15 1014.47 1014.74 1014.80 1014.92 1015.00 1014.96 1014.94 1014.94 1014.89 1014.96 1015.03 1015.15 1015.25 1015.35 1015.47 1015.55 1015.67 1015.79 1015.95 1016.17
1018.79 1018.68 1018.55 1018.45 1018.45 1018.28 1018.00 1017.76 1017.42 1016.35 1016.11 1015.90 1015.71 1015.47 1015.50 1015.62 1015.65 1015.62 1015.25 1015.12 1015.07 1014.93 1015.11 1015.37 1015.45 1015.50 1015.47 1015.55 1015.57 1015.60 1015.61 1015.65 1015.68 1015.71 1015.73 1015.81 1015.88 1016.11 1016.27 1016.56 1016.70 1016.78 1017.12
1019.24 1019.08 1018.94 1018.82 1018.71 1018.48 1018.29 1018.11 1017.82 1017.78 1017.51 1017.33 1016.77 1016.38 1016.08 1016.18 1016.33 1016.29 1016.10 1015.90 1015.92 1015.89 1016.03 1016.15 1016.14 1016.11 1016.09 1016.14 1016.25 1016.25 1016.30 1016.32 1016.33 1016.19 1016.27 1016.44 1016.63 1016.86 1017.13 1017.38 1017.55 1017.62 1017.80
1019.63 1019.36 1018.98 1018.79 1018.68 1018.59 1018.53 1018.35 1018.26 1018.20 1018.20 1018.12 1017.90 1017.62 1017.33 1017.13 1017.12 1017.16 1017.03 1016.90 1016.99 1016.89 1016.86 1016.82 1016.72 1016.60 1016.62 1016.79 1016.78 1016.61 1016.64 1016.76 1016.73 1016.81 1016.99 1017.21 1017.39 1017.57 1017.86 1018.16 1018.22 1018.34 1018.46
1019.35 1018.86 1018.67 1018.72 1018.91 1019.07 1019.16 1019.20 1019.03 1019.00 1018.99 1019.02 1018.88 1018.83 1018.41 1017.97 1018.12 1018.26 1018.11 1017.96 1017.96 1017.84 1017.81 1017.73 1017.64 1017.79 1017.68 1017.58 1017.44 1017.19 1017.02 1016.97 1016.96 1017.02 1017.51 1017.79 1018.04 1018.25 1018.56 1018.77 1018.95 1019.08 1019.34
1019.10 1018.78 1018.79 1019.04 1019.36 1019.74 1019.78 1019.78 1019.83 1019.90 1019.95 1019.99 1020.06 1019.87 1019.35 1019.18 1019.46 1019.41 1019.23 1019.14 1018.98 1018.89 1018.81 1018.62 1018.63 1018.55 1018.32 1017.96 1017.77 1017.51 1017.21 1017.12 1017.21 1017.65 1018.18 1018.45 1018.72 1018.93 1019.15 1019.32 1019.56 1019.84 1020.01
1019.42 1019.54 1019.61 1019.88 1020.08 1020.30 1020.43 1020.44 1020.48 1020.57 1020.69 1020.74 1020.76 1020.57 1020.31 1020.30 1020.39 1020.38 1020.30 1020.23 1020.05 1019.77 1019.61 1019.40 1019.27 1019.16 1018.99 1018.83 1018.60 1018.31 1017.76 1017.56 1017.89 1018.31 1018.57 1018.87 1019.20 1019.44 1019.67 1019.93 1020.23 1020.47 1020.72
1020.07 1020.29 1020.47 1020.74 1020.88 1020.90 1021.13 1021.21 1021.41 1021.49 1021.59 1021.63 1021.61 1021.59 1021.52 1021.51 1021.53 1021.47 1021.34 1021.17 1020.95 1020.74 1020.53 1020.23 1020.14 1019.96 1019.58 1019.40 1019.14 1018.82 1019.14 1018.48 1018.49 1018.57 1018.90 1019.28 1019.59 1019.82 1020.06 1020.28 1020.56 1020.80 1021.12
1020.41 1020.81 1021.18 1021.39 1021.47 1021.70 1021.89 1022.13 1022.32 1022.37 1022.46 1022.63 1022.67 1022.71 1022.74 1022.68 1022.59 1022.51 1022.35 1022.11 1021.84 1021.71 1021.50 1021.28 1021.04 1020.80 1020.35 1020.02 1019.74 1019.42 1019.19 1019.14 1019.30 1019.47 1019.55 1019.92 1020.24 1020.51 1020.70 1020.95 1021.18 1021.41 1021.63
1021.14 1021.48 1021.79 1022.14 1022.39 1022.57 1022.76 1022.98 1023.18 1023.35 1023.43 1023.56 1023.70 1023.77 1023.78 1023.70 1023.60 1023.48 1023.27 1023.02 1022.87 1022.68 1022.58 1022.22 1021.90 1021.48 1021.19 1020.90 1020.64 1020.49 1020.33 1020.30 1020.35 1020.50 1020.68 1020.89 1021.18 1021.40 1021.67 1021.97 1022.14 1022.39 1022.52
1021.82 1022.14 1022.46 1022.79 1023.10 1023.26 1023.57 1023.86 1024.11 1024.28 1024.51 1024.59 1024.72 1024.78 1024.77 1024.73 1024.69 1024.55 1024.38 1024.12 1023.96 1023.79 1023.61 1023.42 1023.05 1022.52 1022.16 1022.05 1021.75 1021.42 1021.32 1021.28 1021.38 1021.45 1021.61 1021.93 1022.27 1022.58 1022.70 1022.86 1022.98 1023.21 1023.39
Wind_Speed
7 6 6 7 7 5 3 2 3 3 5 5 5 5 5 5 6 5 4 5 4 4 3 4 5 4 3 3 4 4 5 3 3 2 2 5 3 7 6 4 8 6 6
7 9 8 7 7 7 4 2 2 2 2 4 4 4 5 5 5 5 4 4 4 5 6 7 5 4 4 4 3 5 5 3 2 4 3 2 4 5 4 3 5 4 5
7 11 10 9 7 7 2 3 3 3 3 3 4 5 6 6 5 4 4 3 4 4 6 5 5 5 5 4 3 3 3 3 0 1 4 2 4 2 3 2 2 5 4
10 11 9 9 7 3 1 4 4 5 4 4 5 6 7 7 5 4 4 5 6 5 6 6 6 5 6 6 5 5 3 4 5 5 6 5 4 2 2 2 3 5 7
11 11 10 10 2 3 5 5 6 5 5 4 6 7 7 6 5 4 5 6 5 6 6 6 7 11 15 12 4 6 5 3 3 6 5 3 3 2 1 2 7 7 6
9 10 10 4 6 6 5 5 5 4 4 3 8 6 6 4 8 8 3 3 4 4 4 5 5 11 11 9 10 16 12 4 6 6 6 7 6 3 1 6 9 7 4
9 8 7 6 7 6 6 5 6 5 4 5 5 5 5 4 3 4 5 2 3 3 4 4 5 5 9 8 17 20 21 24 17 8 9 6 4 6 2 6 5 4 4
8 5 6 6 6 6 7 6 5 3 4 3 4 4 3 4 9 8 7 5 5 5 4 4 4 5 5 7 10 11 11 9 8 8 9 7 4 4 2 3 6 7 7
5 6 6 6 7 6 6 4 4 4 5 5 3 5 6 5 9 7 5 3 4 4 4 6 4 4 6 8 10 11 10 10 14 18 15 12 12 13 7 8 7 8 3
6 7 7 6 6 5 3 4 4 3 3 3 4 4 6 6 9 8 4 3 5 4 5 5 10 5 9 6 6 5 7 7 6 7 6 11 12 12 15 7 2 5 4
7 7 6 5 5 4 4 3 5 5 3 3 4 5 6 6 6 7 6 4 3 5 6 6 4 7 8 8 6 5 7 6 10 8 8 7 8 8 7 8 8 5 3
6 7 6 5 3 3 5 5 4 4 5 5 5 5 5 5 9 10 9 9 7 6 5 5 5 12 13 12 8 9 10 8 5 5 6 6 6 6 6 7 8 7 7
6 5 4 4 5 4 4 5 4 4 4 4 4 4 4 6 6 10 11 11 12 8 7 9 15 14 13 13 16 14 10 5 5 5 6 6 5 6 6 6 7 11 12
5 4 5 5 5 5 4 4 5 4 4 4 4 4 4 4 4 4 4 5 9 8 8 8 9 12 15 11 9 9 6 5 5 5 5 5 5 5 6 5 6 7 9
4 4 5 4 5 5 5 3 3 2 2 1 1 2 4 4 3 3 6 5 6 7 7 7 8 7 8 7 6 7 6 6 6 5 5 6 6 6 6 5 7 8 9
4 4 4 4 4 4 4 4 4 2 3 7 4 2 2 2 8 11 13 13 13 10 8 7 7 7 6 5 5 6 6 7 6 6 6 5 5 6 7 7 7 7 8
5 5 3 4 4 4 4 4 5 7 9 13 17 15 14 12 13 11 11 15 15 10 7 7 6 5 6 7 6 6 6 6 6 6 5 5 6 6 7 7 6 7 8
4 7 2 1 1 1 3 3 4 4 4 7 12 14 16 16 15 14 13 10 9 9 8 7 6 6 6 7 6 5 6 6 5 5 6 6 7 6 7 7 6 8 8
5 4 4 3 1 2 3 5 5 6 7 6 8 11 11 16 15 14 11 7 8 7 6 6 5 8 8 8 6 5 5 6 4 7 7 7 7 7 8 7 8 10 9
5 9 6 2 3 5 5 4 4 6 8 8 7 5 6 10 9 8 8 7 8 8 7 7 7 9 6 4 4 4 4 5 5 6 7 7 7 6 7 8 8 8 8
4 5 7 6 5 4 4 5 6 7 7 7 6 6 8 9 7 7 7 8 8 7 6 6 7 6 4 5 5 5 5 4 7 10 8 7 8 8 8 8 8 9 9
4 4 4 5 4 5 5 5 6 6 7 8 7 9 10 8 8 8 8 8 7 7 5 5 5 4 3 4 4 5 7 7 9 8 7 8 8 8 8 9 9 9 9
5 5 5 5 5 6 6 6 7 7 8 7 8 8 8 8 8 8 8 8 8 7 6 6 6 5 5 4 4 3 4 4 5 7 8 7 6 7 8 9 9 8 8
7 6 6 5 7 7 6 6 7 9 9 7 7 7 6 7 8 8 8 7 8 8 7 7 6 8 6 5 5 6 5 7 6 6 6 5 6 7 7 7 7 8 7
6 6 6 6 6 5 6 7 7 7 8 8 8 7 6 7 8 8 7 7 8 9 9 8 7 10 11 13 12 11 12 14 11 9 8 9 9 9 6 5 5 5 5
7 7 5 6 7 6 7 7 6 7 6 7 7 6 6 7 7 7 7 9 8 8 9 8 10 14 14 11 11 13 14 14 13 12 10 10 10 8 8 9 10 8 9
Wind_Direction
335 324 318 313 316 321 320 354 354 351 338 332 344 350 2 18 5 12 359 355 5 345 348 359 346 333 329 322 325 310 297 267 191 153 116 139 119 134 124 147 144 136 167
320 323 312 306 312 319 302 36 344 20 356 343 351 14 24 23 27 4 346 350 14 5 6 14 345 343 345 348 354 325 301 272 195 146 124 134 121 116 115 110 123 118 114
316 321 306 305 300 304 23 18 16 36 37 12 25 35 38 17 30 349 336 348 27 17 26 5 357 357 357 344 339 352 327 322 351 146 114 107 94 103 94 86 130 106 129
323 313 295 291 290 254 51 61 40 33 33 39 58 44 42 22 7 8 3 10 20 17 14 2 1 16 19 11 2 358 4 51 59 84 93 90 83 101 137 148 115 134 119
320 305 308 302 75 62 50 52 54 39 40 30 63 51 38 37 9 23 22 21 14 17 13 8 10 32 28 24 14 7 19 34 70 88 87 84 84 106 180 95 112 100 79
312 307 317 8 65 59 53 44 54 44 46 44 55 39 41 31 22 41 56 28 31 34 17 358 358 18 5 26 66 64 53 47 46 71 70 69 38 6 132 117 124 125 108
301 322 20 34 55 50 51 46 36 24 26 32 41 24 10 317 18 52 24 37 77 45 16 5 6 22 10 48 72 74 64 64 61 73 70 46 32 5 20 117 109 95 83
307 25 36 55 56 46 44 26 21 5 24 29 25 13 356 339 359 357 7 22 49 36 26 28 44 27 34 68 78 78 72 72 69 70 74 66 42 341 311 93 113 101 82
34 40 54 63 60 49 42 10 6 5 25 9 8 356 354 346 354 12 39 1 38 41 23 34 27 63 90 97 96 89 84 76 66 66 61 60 48 42 51 119 123 123 100
50 57 61 61 63 60 35 354 336 4 9 358 353 357 6 18 12 17 57 22 32 18 26 42 38 47 90 116 112 109 90 82 87 83 57 48 45 40 49 52 114 121 116
69 71 62 58 54 26 360 339 330 352 358 18 22 8 33 39 38 43 29 49 34 47 30 22 18 35 57 62 88 94 93 89 64 59 54 50 47 45 40 42 49 78 102
69 65 54 45 25 334 325 324 17 22 39 27 32 25 11 12 26 27 35 48 40 61 37 42 51 65 67 59 69 83 77 73 72 68 66 59 57 55 51 55 62 66 60
79 65 42 344 348 0 16 26 53 32 26 18 29 27 357 12 22 17 35 54 54 61 61 59 61 53 64 61 53 55 59 61 73 64 61 64 64 63 61 60 67 74 67
72 50 13 35 28 26 36 30 56 38 48 38 41 34 16 26 7 353 13 46 46 51 48 53 58 61 60 54 51 47 52 54 65 66 69 66 60 61 61 51 72 75 77
66 27 38 36 47 51 42 25 55 339 292 125 107 96 73 37 1 26 45 44 58 52 61 52 48 47 48 40 40 53 50 51 57 62 68 68 63 59 54 59 69 75 83
54 26 49 57 42 40 33 14 333 292 21 48 26 151 70 119 86 65 59 50 51 54 58 56 54 49 48 46 47 57 51 59 64 65 74 66 62 68 69 58 64 76 82
37 22 46 56 41 23 11 26 25 340 21 23 31 39 62 88 78 73 43 48 44 50 62 62 49 44 41 55 59 53 60 58 64 73 78 72 74 69 67 68 65 73 74
20 24 47 29 346 9 48 39 42 35 5 29 23 43 62 76 66 53 42 44 51 53 61 62 51 47 48 54 68 59 71 76 76 56 67 71 71 73 77 74 72 82 80
360 335 306 281 291 357 34 29 36 55 47 54 58 43 50 61 60 50 45 51 47 40 45 48 31 39 58 58 57 55 70 91 83 86 78 79 77 80 81 79 79 77 85
292 254 233 168 100 67 47 50 44 57 61 57 44 23 49 57 46 38 40 42 46 53 52 46 41 64 76 58 30 16 36 48 81 87 93 79 78 79 84 86 81 85 82
320 83 88 75 74 78 62 53 54 64 64 57 50 38 44 64 51 41 39 44 51 56 44 45 50 60 35 9 14 9 17 26 49 85 86 83 84 87 85 84 87 88 90
75 70 73 86 76 60 58 59 57 61 62 63 59 47 40 52 49 46 40 39 38 38 22 40 37 31 20 17 12 32 23 29 71 99 96 92 89 90 92 93 93 92 92
89 89 76 64 74 77 65 59 64 62 61 53 58 56 52 52 49 44 41 40 39 32 27 26 22 21 8 16 4 355 69 355 31 87 99 96 95 98 100 101 102 100 93
93 86 81 72 78 73 69 69 66 63 69 65 61 50 41 43 47 43 36 32 38 37 32 26 22 25 14 22 28 23 28 67 72 74 70 68 70 74 83 83 85 85 86
86 84 78 82 81 74 67 64 68 64 69 71 68 60 43 43 43 39 32 35 38 39 34 32 28 34 35 40 47 53 51 51 62 70 71 70 65 62 61 58 58 57 57
91 86 79 80 78 76 77 76 68 69 71 73 69 60 58 57 49 44 38 39 38 37 35 30 25 33 37 38 53 60 58 58 63 64 72 70 68 61 62 65 66 66 68